Vorticity
nan nan nan nan nan nan nan nan nan nan nan nan nan nan nan nan nan nan nan nan nan nan nan nan nan nan nan nan nan nan nan nan nan nan nan nan nan nan nan nan nan nan nan nan
nan 8 9 8 12 27 24 9 10 9 9 7 11 12 12 8 7 13 11 13 16 14 5 5 11 9 10 15 14 13 6 5 8 13 16 14 10 11 10 0 8 7 -0 nan
nan 8 9 8 10 24 27 11 9 12 12 7 9 11 9 6 7 12 15 12 15 10 0 9 15 8 11 11 6 12 13 7 9 4 3 8 5 6 7 7 3 13 1 nan
nan 9 9 10 10 23 25 11 10 11 10 11 11 10 6 10 11 5 9 13 14 9 7 11 10 7 9 9 10 5 7 9 9 7 1 2 5 6 10 7 3 2 5 nan
nan 9 9 11 10 28 28 10 7 9 11 12 8 8 7 9 6 9 15 13 9 12 10 11 15 9 7 9 10 7 8 7 10 12 17 13 11 14 15 13 14 12 12 nan
nan 9 10 8 13 28 19 10 10 9 10 11 10 10 13 11 5 7 14 11 8 6 6 9 10 9 10 14 12 9 8 9 8 7 9 19 23 21 16 13 12 10 6 nan
nan 9 9 7 10 21 21 11 10 11 10 11 12 9 12 8 10 13 8 10 11 4 8 11 7 10 11 8 6 9 8 7 6 8 11 13 16 14 10 6 9 12 9 nan
nan 8 7 8 8 18 22 12 10 11 9 14 9 8 9 7 8 8 8 11 10 8 10 12 11 10 11 14 14 11 5 4 8 11 13 8 10 12 14 15 10 12 13 nan
nan 9 8 8 9 16 21 14 10 10 10 5 11 15 8 9 9 8 6 5 9 13 12 11 10 9 12 12 11 15 16 8 2 6 11 14 10 12 13 10 7 9 10 nan
nan 8 9 9 9 14 21 12 12 13 10 3 10 13 12 11 7 10 9 8 9 11 12 10 11 9 12 12 12 9 11 14 11 8 7 8 11 10 8 4 8 9 10 nan
nan 7 7 10 10 13 18 14 9 11 10 10 7 7 10 10 11 12 10 9 9 11 10 10 11 10 8 11 14 13 9 8 11 11 8 10 10 7 12 11 8 9 14 nan
nan 8 8 8 10 11 15 15 9 13 10 8 10 12 12 10 13 11 10 10 11 9 9 10 10 10 11 11 8 9 12 11 12 10 6 9 14 11 9 13 11 12 13 nan
nan 10 9 8 10 10 14 13 10 12 12 12 14 16 14 10 9 11 12 11 11 10 13 12 10 10 10 11 10 10 12 11 6 7 9 11 12 14 11 10 12 15 17 nan
nan 10 11 10 10 9 14 14 11 11 10 11 11 10 11 11 10 11 12 13 11 12 11 11 9 10 10 10 11 11 11 12 12 7 12 12 10 9 8 11 13 13 16 nan
nan 10 9 11 11 13 17 15 15 10 8 9 8 12 14 12 15 11 9 10 9 10 10 11 10 10 11 11 11 11 11 8 7 8 14 12 9 9 11 13 12 14 11 nan
nan 12 11 13 14 18 14 13 14 14 12 8 11 15 11 11 12 11 10 8 9 10 10 10 10 10 12 11 10 12 10 12 7 7 11 10 10 9 14 13 11 12 12 nan
nan 11 17 24 25 17 9 9 8 11 10 11 11 10 10 11 10 10 12 11 10 10 10 11 11 13 10 9 8 3 5 11 18 19 11 13 12 11 12 10 11 11 10 nan
nan 17 23 26 21 11 10 11 11 9 8 10 11 13 12 11 9 10 11 10 11 11 9 11 12 13 10 10 12 11 12 10 15 20 11 13 12 12 11 10 10 10 10 nan
nan 25 23 16 11 9 8 10 15 13 11 12 12 11 11 11 11 12 11 11 11 11 11 10 12 12 8 9 10 11 14 16 14 11 14 15 10 9 9 9 10 10 10 nan
nan 23 14 9 5 10 15 13 12 12 11 10 9 11 13 11 10 12 11 10 12 11 10 12 12 9 8 9 14 13 10 15 11 3 6 10 14 14 11 10 11 11 10 nan
nan 14 10 7 13 17 11 11 12 11 11 13 10 10 11 12 11 11 12 12 11 11 11 10 11 12 10 9 11 10 12 12 12 9 13 17 14 12 10 11 13 11 11 nan
nan 12 11 11 13 12 12 11 12 13 10 11 13 11 11 10 12 12 12 11 10 12 11 12 11 8 5 8 12 12 14 15 20 17 14 18 16 13 12 13 13 12 12 nan
nan 11 12 12 12 11 15 12 10 10 9 10 13 12 12 11 12 12 12 12 11 11 12 11 9 2 6 11 13 15 14 14 16 16 18 19 17 17 14 10 11 13 11 nan
nan 13 12 12 11 10 11 11 12 12 10 11 12 12 11 11 12 12 12 10 11 11 12 11 5 5 9 11 11 12 13 13 13 12 17 18 14 12 12 12 12 11 11 nan
nan 12 12 10 8 13 12 12 10 10 11 12 12 12 12 10 12 12 10 12 11 12 9 9 7 8 10 9 10 11 12 13 13 13 15 14 13 12 13 14 13 12 12 nan
nan 11 12 11 11 12 10 10 13 11 12 13 12 12 12 13 11 12 11 10 13 10 9 8 7 8 10 11 11 13 12 12 13 14 15 14 14 14 12 13 14 14 12 nan
nan nan nan nan nan nan nan nan nan nan nan nan nan nan nan nan nan nan nan nan nan nan nan nan nan nan nan nan nan nan nan nan nan nan nan nan nan nan nan nan nan nan nan nan
CAPE
19 29 31 14 36 84 21 11 1 65 55 1 4 6 12 3 10 2 8 3 0 0 3 4 0 0 0 0 0 0 0 0 0 0 0 0 0 0 0 2 0 0 0 0
21 26 30 12 23 41 18 6 2 32 3 7 22 2 19 5 11 3 0 2 3 0 0 0 4 1 0 0 1 3 0 2 0 0 0 0 0 0 0 0 0 0 0 0
23 34 21 21 7 22 23 17 6 8 25 30 3 15 17 8 14 6 0 0 0 0 0 3 1 0 0 0 0 0 0 3 0 0 0 0 0 0 0 2 1 0 0 0
27 22 25 11 10 34 8 1 9 4 25 19 16 11 14 7 4 1 1 0 3 3 1 2 0 0 0 0 0 0 1 1 0 0 0 0 0 0 0 1 1 4 0 1
23 14 30 4 18 9 5 6 4 2 0 9 6 5 1 10 2 8 1 0 0 1 0 0 0 0 0 0 0 0 0 1 1 0 0 0 0 0 0 2 5 7 4 3
27 11 26 5 10 10 13 5 6 5 0 0 12 15 5 6 3 0 1 2 2 5 3 0 0 0 0 0 0 0 16 2 0 0 0 0 1 0 1 1 4 10 6 3
33 29 27 6 3 14 7 14 9 3 9 0 4 2 0 1 14 5 0 0 9 2 0 0 0 0 0 2 2 0 2 5 14 0 0 0 0 0 0 0 0 3 4 0
10 11 11 9 2 2 3 11 9 8 5 3 1 0 1 0 9 1 3 0 0 0 0 3 2 0 9 0 0 2 0 13 15 7 0 0 0 0 0 0 0 0 0 0
7 9 3 3 5 4 0 9 2 6 4 6 12 4 0 1 1 2 9 4 0 0 4 2 0 3 4 3 1 0 12 0 7 0 2 0 0 0 0 0 0 0 0 0
12 10 15 7 4 6 0 10 0 5 6 1 1 6 14 1 2 13 11 8 11 3 10 2 1 1 2 1 3 6 10 10 4 3 11 0 0 0 0 0 0 0 0 0
20 12 15 16 12 6 2 0 2 9 6 0 0 20 19 3 21 17 2 2 2 1 12 3 10 0 0 0 0 0 0 0 1 9 12 0 0 0 0 0 0 0 0 0
19 20 17 19 12 15 6 7 11 10 11 0 0 0 0 0 0 16 4 3 3 12 11 6 1 8 1 1 1 0 1 2 0 0 0 0 0 0 0 0 0 0 0 0
19 16 20 21 12 14 16 15 16 12 10 1 2 25 2 0 0 0 0 0 7 0 15 11 4 2 3 1 0 0 0 0 0 0 1 0 0 0 0 0 0 0 0 0
15 15 16 10 23 11 25 19 11 19 7 6 16 0 3 0 0 0 0 2 5 18 9 8 17 14 9 5 4 0 0 0 0 0 0 0 0 0 0 0 0 0 0 0
38 24 36 32 17 14 25 6 3 11 7 8 0 0 0 0 0 0 0 1 1 4 5 6 15 5 6 0 3 0 0 0 0 0 0 0 0 0 0 0 0 0 0 0
16 33 23 30 36 31 20 3 5 3 12 9 6 7 0 0 0 0 0 3 1 0 3 7 3 1 5 14 4 0 0 0 0 0 0 0 0 0 0 0 0 0 0 0
29 34 26 14 17 42 8 6 9 9 6 5 2 29 2 0 0 0 1 3 8 5 4 4 6 6 23 7 7 0 0 0 0 0 0 0 0 0 0 0 0 0 0 0
21 4 0 19 27 31 15 8 2 8 6 5 1 0 3 0 14 12 9 8 5 4 2 3 10 6 5 10 0 0 0 0 0 0 0 0 0 0 0 0 0 0 0 0
3 0 0 42 8 2 15 2 0 4 7 3 8 0 5 0 11 7 4 5 9 2 2 2 5 9 1 0 0 0 0 0 0 0 0 0 0 0 0 0 0 0 0 0
0 0 1 7 2 0 2 3 8 5 2 5 9 11 2 0 9 20 13 0 0 1 0 0 2 0 0 0 0 0 0 0 0 0 0 0 0 0 0 0 0 0 0 0
0 0 0 0 0 3 12 6 4 4 2 16 5 2 6 0 1 12 0 0 0 0 0 1 1 1 0 0 0 0 0 0 0 0 0 0 0 0 0 0 0 0 0 0
2 2 4 1 1 2 1 0 0 13 6 0 11 1 0 0 0 1 0 1 0 1 0 0 0 0 0 0 0 0 0 0 0 0 0 0 0 0 0 0 0 0 0 0
8 10 0 3 0 0 0 15 3 1 0 0 0 0 0 0 0 0 0 0 0 0 0 0 0 0 0 0 0 0 0 0 0 0 0 0 0 0 0 0 0 0 0 0
0 0 0 2 2 0 0 1 1 2 0 0 0 0 0 0 0 0 0 0 0 0 0 0 0 0 0 0 0 0 0 0 0 0 0 0 0 0 0 0 0 0 0 0
0 0 0 1 0 1 0 0 0 0 1 1 0 0 0 0 0 0 0 0 0 0 0 0 0 0 0 0 0 0 0 0 0 0 0 0 0 0 0 0 0 0 0 0
1 0 1 0 0 1 1 0 0 0 0 0 0 0 0 0 0 0 0 0 0 0 0 0 0 0 0 0 0 0 0 0 0 0 0 0 0 0 0 0 0 0 0 0
0 0 0 1 0 0 0 0 0 0 0 0 0 0 0 0 0 1 0 0 0 1 0 0 0 0 0 0 0 0 0 0 0 0 0 0 0 0 0 0 0 0 0 0